Weather History for KAFW - January, 2014

Change the Weather History Date:

Wednesday, January 29, 2014

  Actual Average Record
Temperature  
Mean Temperature 26 °F -  
Max Temperature 44 °F 55 °F 78 °F (2002)
Min Temperature 9 °F 33 °F 9 °F (2014)
Degree Days  
Heating Degree Days 38    
Moisture  
Dew Point 10 °F    
Average Humidity 49    
Maximum Humidity 84    
Minimum Humidity 25    
Precipitation  
Precipitation 0.00 in - - ()
Sea Level Pressure  
Sea Level Pressure 30.36 in    
Wind  
Wind Speed 5 mph (South)    
Max Wind Speed 15 mph    
Max Gust Speed 20 mph    
Visibility 10 miles    
Events      
Averages and records for this station are not official NWS values.
T = Trace of Precipitation, MM = Missing Value Source: NWS Daily Summary

Daily Weather History Graph

Daily Weather History Graph

Search for Another Location

Airport or City:

Trip Planner

Search our weather history database for the weather conditions in past years. The results will help you decide how hot, cold, wet, or windy it might be!

Date:

Astronomy

Jan. 29, 2014 Rise Set
Actual Time 7:26 AM CST 5:58 PM CST
Civil Twilight 7:00 AM CST 6:24 PM CST
Nautical Twilight 6:30 AM CST 6:54 PM CST
Astronomical Twilight 6:01 AM CST 7:23 PM CST
Moon 6:03 AM CST (1/29) 4:59 PM CST (1/29)
Length of Visible Light 11h 24m
Length of Day
10h 32m
Waning Crescent, 2% of the Moon is Illuminated
Jan 29
Waning Crescent
Jan 30
New
Feb 6
First Quarter
Feb 14
Full
Feb 22
Last Quarter

Hourly Weather History & Observations

Time (CST) Temp. Windchill Dew Point Humidity Pressure Visibility Wind Dir Wind Speed Gust Speed Precip Events Conditions
12:53 AM 16.0 °F - 7.0 °F 68% 30.48 in 10.0 mi Calm Calm - N/A   Clear
1:53 AM 12.9 °F - 7.0 °F 77% 30.47 in 10.0 mi Calm Calm - N/A   Clear
2:53 AM 12.9 °F - 7.0 °F 77% 30.45 in 10.0 mi Calm Calm - N/A   Clear
3:53 AM 12.9 °F - 7.0 °F 77% 30.46 in 10.0 mi Calm Calm - N/A   Clear
4:53 AM 12.9 °F - 8.1 °F 81% 30.44 in 10.0 mi Calm Calm - N/A   Clear
5:53 AM 14.0 °F - 8.1 °F 77% 30.44 in 10.0 mi Calm Calm - N/A   Clear
6:53 AM 9.0 °F -2.2 °F 5.0 °F 84% 30.45 in 10.0 mi South 6.9 mph - N/A   Partly Cloudy
7:53 AM 17.1 °F 10.0 °F 10.0 °F 74% 30.47 in 10.0 mi WSW 4.6 mph - N/A   Scattered Clouds
8:53 AM 24.1 °F 15.2 °F 14.0 °F 65% 30.48 in 10.0 mi SSW 8.1 mph - N/A   Scattered Clouds
9:53 AM 32.0 °F 22.5 °F 12.9 °F 45% 30.49 in 10.0 mi South 12.7 mph 19.6 mph N/A   Partly Cloudy
10:53 AM 36.0 °F 29.6 °F 12.9 °F 39% 30.48 in 10.0 mi SSW 8.1 mph - N/A   Partly Cloudy
11:53 AM 39.0 °F 32.3 °F 14.0 °F 36% 30.44 in 10.0 mi SSE 10.4 mph 17.3 mph N/A   Partly Cloudy
12:53 PM 42.1 °F 35.7 °F 12.9 °F 31% 30.38 in 10.0 mi South 11.5 mph - N/A   Clear
1:53 PM 44.1 °F 38.1 °F 12.0 °F 27% 30.35 in 10.0 mi SSE 11.5 mph 18.4 mph N/A   Clear
2:53 PM 44.1 °F 40.1 °F 10.0 °F 25% 30.32 in 10.0 mi South 6.9 mph 17.3 mph N/A   Partly Cloudy
3:53 PM 44.1 °F 38.1 °F 10.9 °F 26% 30.30 in 10.0 mi South 11.5 mph 17.3 mph N/A   Mostly Cloudy
4:53 PM 44.1 °F 37.4 °F 10.9 °F 26% 30.29 in 10.0 mi South 13.8 mph - N/A   Mostly Cloudy
5:53 PM 39.9 °F 33.4 °F 10.9 °F 31% 30.25 in 10.0 mi South 10.4 mph - N/A   Scattered Clouds
6:53 PM 39.0 °F 31.4 °F 10.9 °F 32% 30.24 in 10.0 mi South 12.7 mph - N/A   Partly Cloudy
7:53 PM 37.0 °F 28.1 °F 10.0 °F 33% 30.24 in 10.0 mi SSE 15.0 mph - N/A   Partly Cloudy
8:53 PM 35.1 °F 27.9 °F 10.9 °F 37% 30.24 in 10.0 mi South 9.2 mph - N/A   Clear
9:53 PM 34.0 °F 24.6 °F 10.9 °F 38% 30.20 in 10.0 mi South 13.8 mph - N/A   Clear
10:53 PM 33.1 °F 24.4 °F 10.9 °F 40% 30.19 in 10.0 mi South 11.5 mph - N/A   Clear
11:53 PM 33.1 °F 24.4 °F 12.0 °F 42% 30.18 in 10.0 mi South 11.5 mph 19.6 mph N/A   Clear